Weather History for Lucknow, India

Change the Weather History Date:

Saturday, November 17, 2012

  Actual Average Record
Temperature  
Mean Temperature 66 °F -  
Max Temperature 82 °F 72 °F 86 °F (2002)
Min Temperature 50 °F 54 °F 43 °F (2014)
Cooling Degree Days 1    
Growing Degree Days 16 (Base 50)    
Moisture  
Dew Point 53 °F    
Average Humidity 59    
Maximum Humidity 94    
Minimum Humidity 26    
Precipitation  
Precipitation 0.00 in - - ()
Sea Level Pressure  
Sea Level Pressure 29.94 in    
Wind  
Wind Speed 1 mph ()    
Max Wind Speed 5 mph    
Max Gust Speed -    
Visibility 2.2 miles    
Events Fog    
Averages and records for this station are not official NWS values.
T = Trace of Precipitation, MM = Missing Value Source: Averaged Metar Reports

Daily Weather History Graph

Daily Weather History Graph

Search for Another Location

Airport:

Trip Planner

Search our weather history database for the weather conditions in past years. The results will help you decide how hot, cold, wet, or windy it might be!

Date:

Astronomy

Nov. 17, 2012 Rise Set
Actual Time 6:27 AM IST 5:15 PM IST
Civil Twilight 6:02 AM IST 5:39 PM IST
Nautical Twilight 5:34 AM IST 6:07 PM IST
Astronomical Twilight 5:07 AM IST 6:35 PM IST
Moon 9:46 AM IST (11/17) 8:52 PM IST (11/17)
Length of Visible Light 11h 36m
Length of Day
10h 47m
Waxing Crescent, 16% of the Moon is Illuminated
Nov 17
Waxing Crescent
Nov 20
First Quarter
Nov 28
Full
Dec 6
Last Quarter
Dec 13
New

Hourly Weather History & Observations

Time (IST) Temp. Dew Point Humidity Pressure Visibility Wind Dir Wind Speed Gust Speed Precip Events Conditions
1:00 AM 57.2 °F 55.4 °F 94% 29.98 in 0.9 mi Calm Calm - N/A   Mist
5:00 AM 53.6 °F 51.8 °F 94% 29.95 in 0.5 mi Calm Calm - N/A Fog Shallow Fog
5:30 AM 53.6 °F 51.8 °F 94% 29.98 in 0.4 mi Calm Calm - N/A Fog Shallow Fog
8:00 AM 59.0 °F 55.4 °F 88% 30.01 in 0.6 mi Calm Calm - N/A Fog Shallow Fog
8:30 AM 66 °F 57 °F 65% 30.05 in 1 mi Calm Calm - -   Mist
9:00 AM 68.0 °F 57.2 °F 68% 30.04 in 1.2 mi Calm Calm - N/A   Haze
11:00 AM 77.0 °F 55.4 °F 47% 30.01 in 2.8 mi NNW 3.5 mph - N/A   Haze
12:00 PM 78.8 °F 53.6 °F 42% 30.01 in 3.1 mi NNW 4.6 mph - N/A   Haze
1:00 PM 80.6 °F 48.2 °F 32% 29.95 in 3.1 mi Variable 2.3 mph - N/A   Haze
2:00 PM 82.4 °F 48.2 °F 30% 29.92 in 3.1 mi Variable 2.3 mph - N/A   Haze
2:30 PM 82.4 °F 44.6 °F 26% 29.92 in 3.7 mi Variable 2.3 mph - N/A   Unknown
3:00 PM 82.4 °F 44.6 °F 26% 29.89 in 3.7 mi West 3.5 mph - N/A   Unknown
3:30 PM 82.4 °F 50.0 °F 32% 29.89 in 3.7 mi Variable 2.3 mph - N/A   Unknown
4:00 PM 80.6 °F 50.0 °F 34% 29.89 in 3.7 mi Variable 2.3 mph - N/A   Unknown
5:00 PM 78.8 °F 55.4 °F 44% 29.89 in 3.1 mi Variable 2.3 mph - N/A   Haze
5:30 PM 75.2 °F 55.4 °F 50% 29.89 in 2.5 mi Calm Calm - N/A   Haze
6:00 PM 73.4 °F 57.2 °F 57% 29.89 in 2.2 mi Calm Calm - N/A   Haze
6:30 PM 68.0 °F 53.6 °F 60% 29.89 in 2.2 mi Calm Calm - N/A   Haze
7:30 PM 66.2 °F 53.6 °F 64% 29.92 in 1.9 mi Calm Calm - N/A   Haze
8:00 PM 64.4 °F 51.8 °F 64% 29.92 in 1.9 mi Calm Calm - N/A   Haze
8:30 PM 64.4 °F 55.4 °F 73% 29.92 in 1.9 mi Calm Calm - N/A   Haze
9:00 PM 62.6 °F 55.4 °F 77% 29.92 in 1.9 mi Calm Calm - N/A   Haze
10:00 PM 60.8 °F 55.4 °F 82% 29.95 in 1.9 mi Calm Calm - N/A   Haze
11:00 PM 60.8 °F 55.4 °F 82% 29.92 in 1.6 mi Calm Calm - N/A   Mist